Oujda, Morocco

11:54 AM WET on January 20, 2018 (GMT +0000)
Oujda

Weather History for GMFO - February, 2013

Change the Weather History Date:

Thursday, February 14, 2013

  Actual Average Record
Temperature  
Mean Temperature 52 °F -  
Max Temperature 66 °F 63 °F 78 °F (2007)
Min Temperature 37 °F 41 °F 32 °F (2012)
Degree Days  
Heating Degree Days 14    
Growing Degree Days 2 (Base 50)    
Moisture  
Dew Point 42 °F    
Average Humidity 77    
Maximum Humidity 93    
Minimum Humidity 33    
Precipitation  
Precipitation 0.00 in 0.05 in - ()
Sea Level Pressure  
Sea Level Pressure 30.21 in    
Wind  
Wind Speed 4 mph ()    
Max Wind Speed 8 mph    
Max Gust Speed -    
Visibility 11.3 miles    
Events      
Averages and records for this station are not official NWS values.
T = Trace of Precipitation, MM = Missing Value Source: Averaged Metar Reports

Daily Weather History Graph

Daily Weather History Graph

Search for Another Location

Airport or City:

Trip Planner

Search our weather history database for the weather conditions in past years. The results will help you decide how hot, cold, wet, or windy it might be!

Date:

Astronomy

Feb. 14, 2013 Rise Set
Actual Time 6:54 AM WET 5:49 PM WET
Civil Twilight 6:28 AM WET 6:15 PM WET
Nautical Twilight 5:58 AM WET 6:45 PM WET
Astronomical Twilight 5:29 AM WET 7:14 PM WET
Moon 9:01 AM WET (2/14) 10:23 PM WET (2/14)
Length of Visible Light 11h 47m
Length of Day
10h 55m
Waxing Crescent, 19% of the Moon is Illuminated
Feb 14
Waxing Crescent
Feb 17
First Quarter
Feb 25
Full
Mar 4
Last Quarter
Mar 11
New

Hourly Weather History & Observations

Time (WET) Temp. Windchill Dew Point Humidity Pressure Visibility Wind Dir Wind Speed Gust Speed Precip Events Conditions
12:00 AM 39 °F - 37 °F 89% 30.30 in 12 mi SW 5.8 mph - -  
12:00 AM 39.2 °F 35.0 °F 37.4 °F 93% 30.24 in - SW 5.8 mph - N/A   Clear
2:00 AM 39.2 °F 35.0 °F 37.4 °F 93% 30.21 in - SSW 5.8 mph - N/A   Clear
3:00 AM 38 °F - 36 °F 90% 30.28 in 12 mi West 2.3 mph - -  
3:00 AM 39.2 °F - 35.6 °F 87% 30.21 in - West 2.3 mph - N/A   Clear
4:00 AM 37.4 °F 34.9 °F 35.6 °F 93% 30.21 in - WSW 3.5 mph - N/A   Clear
5:00 AM 39.2 °F 33.6 °F 37.4 °F 93% 30.21 in - WSW 8.1 mph - N/A   Clear
6:00 AM 37 °F - 35 °F 90% 30.28 in 12 mi SSW 5.8 mph - -  
6:00 AM 37.4 °F 32.8 °F 35.6 °F 93% 30.21 in - SSW 5.8 mph - N/A   Clear
8:00 AM 44.6 °F - 42.8 °F 93% 30.24 in - Calm Calm - N/A   Clear
9:00 AM 52 °F - 46 °F 75% 30.26 in 16 mi SSW 4.6 mph - -  
9:00 AM 51.8 °F - 46.4 °F 82% 30.24 in - SSW 4.6 mph - N/A   Clear
10:00 AM 57.2 °F - 46.4 °F 67% 30.24 in - SW 5.8 mph - N/A   Clear
11:00 AM 62.6 °F - 44.6 °F 52% 30.24 in - SW 6.9 mph - N/A   Clear
12:00 PM 66.2 °F - 42.8 °F 43% 30.21 in - ESE 4.6 mph - N/A   Clear
2:00 PM - - - N/A% 30.18 in 6.2 mi East 3.5 mph - N/A   Partly Cloudy
3:00 PM 66 °F - 44 °F 33% 30.14 in 16 mi ENE 4.6 mph - -   Scattered Clouds
3:00 PM - - - N/A% 30.18 in 6.2 mi ENE 4.6 mph - N/A   Partly Cloudy
4:00 PM 66.2 °F - 44.6 °F 46% 30.15 in 6.2 mi East 5.8 mph - N/A   Partly Cloudy
5:00 PM 64.4 °F - 46.4 °F 52% 30.15 in 6.2 mi East 6.9 mph - N/A   Partly Cloudy
6:00 PM 57 °F - 47 °F 59% 30.15 in 16 mi East 4.6 mph - -  
6:00 PM 57.2 °F - 46.4 °F 67% 30.15 in - East 4.6 mph - N/A   Clear
8:00 PM 50.0 °F - 44.6 °F 82% 30.18 in - SSW 4.6 mph - N/A   Clear
9:00 PM 48 °F - 44 °F 83% 30.20 in 16 mi South 3.5 mph - -  
9:00 PM 48.2 °F - 44.6 °F 87% 30.18 in - South 3.5 mph - N/A   Clear
10:00 PM 44.6 °F 41.4 °F 41.0 °F 87% 30.18 in - SW 5.8 mph - N/A   Clear
11:00 PM 44.6 °F 43.1 °F 41.0 °F 87% 30.15 in - SW 3.5 mph - N/A   Clear